"Pseudo-MPEC" for P10LqA2

Created 2019 Jan 14 12:18:42 UT using Find_Orb

Click here for an explanation of pseudo-MPECs

 
 Astrometry: 
     P10LqA2  C2019 01 11jDXb5B'3L4bJ4'/sAu=JNnbAstrometryg^bO,.?*g[?/=S5Qo`eF51
     P10LqA2  C2019 01 11jo/cK_!4hbBblcC2r`?blhH1?qJjpYZ?Credacted;S\nl^([KClF51
     P10LqA2  C2019 01 11I'@K89v)GPfsKIg=apRauO-cJf$+='27R$P)u4PKRpxW?eNZ5[udF51
     P10LqA2 ^C2019 01 12.34975806 43 41.661+78 38 02.86   ~1CAI 20.04GVNEOCP568
     P10LqA2 ^C2019 01 12.35070706 43 40.230+78 37 54.62   ~1CAI 20.11GVNEOCP568
     P10LqA2 ^C2019 01 12.35166206 43 38.772+78 37 46.17   ~1CAI 20.04GVNEOCP568
     P10LqA2 KC2019 01 12sf4+click$@dTI_BydNpb+i'Z$qoy5Y(=nwJgd^MB$7v(Ps[nG+0104
     P10LqA2 KC2019 01 12\RR;[Ic2sQP1$rjoILyB-GC9Wvh=hereA?SsKI.t2unc%YAx#j!O104
     P10LqA2 KC2019 01 12!qXh_wB2HkuB#pjAu$M'a(1*YnOTD*Kbb9!95gab^^X(Y.,O546y104
     P10LqA2 1C2019 01 13b0-forKJ.9OZ@8XJFk2S@HAW@@,qg0#XL3eQ7MpQPKnn]?nNQ!ny658
     P10LqA2 1C2019 01 13]OHo54S'a#XS]2!t+pH]Kp6HPd;UkWqml,sG$+?WB,37]N.i?V?)658
     P10LqA2 1C2019 01 13LobMid+N)explanationbKiOA[2:cu)(Qe6W1Z4BPvos`!D=LgFH658
     P10LqA2 KC2019 01 13.82817906 16 44.66 +74 55 22.1    ~1DNI 20.4 GVNEOCPJ95
     P10LqA2 KC2019 01 13.84421406 16 31.34 +74 52 57.0    ~1DNI 20.3 GVNEOCPJ95
     P10LqA2 KC2019 01 13.85077306 16 25.93 +74 51 56.8    ~1DNI 19.9 GVNEOCPJ95

Station data:
(104) San Marcello Pistoiese  (N44.063037 E10.804200)  Italy. 0.40-m f/5
   reflector.
(568) Mauna Kea  (N19.826116 W155.472200)  US/Hawaii.
(658) Dominion Astrophysical Observatory  (N48.519987 W123.417000)
   Canada/BritColumbia. 1.82-m Plaskett reflector.
(F51) Pan-STARRS 1, Haleakala  (N20.707235 W156.255910)  US/Hawaii.
   Observers N. Primak, A. Schultz, S. Watters, J. Thiel, T. Goggia. Measurer
   PS1 Science Consortium. 1.8-m Ritchey-Chrétien + CCD.
(J95) Great Shefford  (N51.474969 W1.447003)  UK.  Observer P. Birtwhistle.
   0.40-m f/6.0 Schmidt-Cassegrain + CCD.

Orbital elements:  P10LqA2
   Perihelion 2018 Oct 27.801460 +/- 0.31 TT = 19:14:06 (JD 2458419.301460)
Epoch 2019 Jan 13.0 TT = JDT 2458496.5   Earth MOID: 0.2824   Me: 0.0639
M  70.71385978 +/- 1.7              (J2000 ecliptic)          AutoNEOCP
n   0.91599996 +/- 0.0186           Peri.   28.15763 +/- 0.8
a   1.05003976 +/- 0.0142           Node   304.48038 +/- 0.34
e   0.5545252 +/- 0.00482           Incl.   37.87931 +/- 0.9
P   1.08/393.01d           H 21.1   G  0.15   U 10.1  
q 0.46776623 +/- 0.00133    Q 1.63231329 +/- 0.0269
From 15 observations 2019 Jan. 11-13; mean residual 0".42
Residuals in arcseconds: 
190111 F51  .32-  .17+    190112 568  .08+  .50-    190113 658  .20-  .21-    
190111 F51  .06-  .08+    190112 104  .41-  .42+    190113 658  .42-  .04-    
190111 F51  .24+  .25+    190112 104  .16+  .22+    190113 J95  .08-  .16+    
190112 568  .05+  .53-    190112 104  .81+  .33-    190113 J95  .01-  .25+    
190112 568  .09+  .43-    190113 658  .27-  1.5+    190113 J95  .12+  .51-    

Ephemerides (geocentric):
Date (UTC) HH   RA              Dec         delta   r     elong  mag " sig PA
---- -- -- --  -------------   -----------  ------ ------ -----  --- ---- ---
2019 01 14 12  06 08 35.863   +73 12 56.19  .29270 1.1814 126.5 20.4 .132  23
2019 01 14 13  06 08 09.248   +73 06 35.55  .29284 1.1818 126.6 20.4 .125  18
2019 01 14 14  06 07 42.995   +73 00 14.98  .29299 1.1821 126.7 20.4 .119  13
2019 01 14 15  06 07 17.097   +72 53 54.48  .29314 1.1824 126.7 20.4 .115   7
2019 01 14 16  06 06 51.548   +72 47 34.06  .29329 1.1828 126.8 20.4 .112   0
2019 01 14 17  06 06 26.341   +72 41 13.72  .29345 1.1831 126.9 20.4 .111 173
2019 01 14 18  06 06 01.471   +72 34 53.47  .29360 1.1834 126.9 20.4 .111 166
2019 01 14 19  06 05 36.931   +72 28 33.32  .29375 1.1838 127.0 20.4 .114 158
2019 01 14 20  06 05 12.715   +72 22 13.27  .29391 1.1841 127.0 20.4 .119 151
2019 01 14 21  06 04 48.818   +72 15 53.34  .29407 1.1844 127.1 20.4 .126 145
2019 01 14 22  06 04 25.233   +72 09 33.52  .29422 1.1848 127.2 20.4 .134 139
2019 01 14 23  06 04 01.956   +72 03 13.83  .29438 1.1851 127.2 20.4 .144 134
2019 01 15 00  06 03 38.981   +71 56 54.27  .29454 1.1854 127.3 20.4 .156 129
2019 01 15 01  06 03 16.302   +71 50 34.85  .29471 1.1858 127.4 20.4 .169 125
2019 01 15 02  06 02 53.915   +71 44 15.58  .29487 1.1861 127.4 20.4 .183 122
2019 01 15 03  06 02 31.814   +71 37 56.45  .29503 1.1864 127.5 20.4 .198 119
2019 01 15 04  06 02 09.995   +71 31 37.48  .29520 1.1868 127.5 20.4 .213 116
2019 01 15 05  06 01 48.453   +71 25 18.67  .29536 1.1871 127.6 20.4 .230 114
2019 01 15 06  06 01 27.182   +71 19 00.03  .29553 1.1874 127.7 20.4 .247 112
2019 01 15 07  06 01 06.179   +71 12 41.57  .29570 1.1878 127.7 20.4 .265 110
2019 01 15 08  06 00 45.438   +71 06 23.28  .29587 1.1881 127.8 20.4 .284 109
2019 01 15 09  06 00 24.956   +71 00 05.18  .29604 1.1884 127.8 20.4 .303 107
2019 01 15 10  06 00 04.729   +70 53 47.27  .29621 1.1888 127.9 20.4 .323 106
2019 01 15 11  05 59 44.751   +70 47 29.56  .29638 1.1891 128.0 20.4 .344 105
2019 01 15 12  05 59 25.019   +70 41 12.05  .29655 1.1894 128.0 20.4 .365 104
2019 01 15 13  05 59 05.528   +70 34 54.74  .29673 1.1898 128.1 20.4 .386 103
2019 01 15 14  05 58 46.276   +70 28 37.65  .29690 1.1901 128.1 20.4 .408 103
2019 01 15 15  05 58 27.257   +70 22 20.77  .29708 1.1904 128.2 20.4 .431 102
2019 01 15 16  05 58 08.469   +70 16 04.11  .29726 1.1908 128.3 20.4 .454 101
2019 01 15 17  05 57 49.907   +70 09 47.68  .29744 1.1911 128.3 20.4 .477 101
2019 01 15 18  05 57 31.567   +70 03 31.49  .29762 1.1914 128.4 20.4 .501 100
2019 01 15 19  05 57 13.447   +69 57 15.53  .29780 1.1918 128.4 20.4 .526 100
2019 01 15 20  05 56 55.543   +69 50 59.81  .29798 1.1921 128.5 20.4 .550 100
2019 01 15 21  05 56 37.851   +69 44 44.33  .29817 1.1924 128.5 20.4 .576  99
2019 01 15 22  05 56 20.368   +69 38 29.11  .29835 1.1928 128.6 20.4 .602  99
2019 01 15 23  05 56 03.091   +69 32 14.15  .29854 1.1931 128.6 20.4 .628  99
2019 01 16 00  05 55 46.016   +69 25 59.44  .29872 1.1934 128.7 20.4 .655  99
2019 01 16 01  05 55 29.141   +69 19 44.99  .29891 1.1937 128.8 20.4 .682  98
2019 01 16 02  05 55 12.462   +69 13 30.82  .29910 1.1941 128.8 20.4 .710  98
2019 01 16 03  05 54 55.977   +69 07 16.92  .29929 1.1944 128.9 20.4 .738  98
2019 01 16 04  05 54 39.682   +69 01 03.29  .29948 1.1947 128.9 20.4 .767  98
2019 01 16 05  05 54 23.574   +68 54 49.95  .29967 1.1951 129.0 20.4 .796  98
2019 01 16 06  05 54 07.651   +68 48 36.89  .29987 1.1954 129.0 20.4 .825  97
2019 01 16 07  05 53 51.910   +68 42 24.12  .30006 1.1957 129.1 20.4 .855  97
2019 01 16 08  05 53 36.348   +68 36 11.64  .30026 1.1961 129.1 20.4 .886  97
2019 01 16 09  05 53 20.962   +68 29 59.47  .30045 1.1964 129.2 20.4 .917  97
2019 01 16 10  05 53 05.750   +68 23 47.59  .30065 1.1967 129.2 20.4 .948  97
2019 01 16 11  05 52 50.710   +68 17 36.02  .30085 1.1970 129.3 20.4 .980  97